Total_Precipitation_Accumulation
0.18 0.19 0.19 0.18 0.16 0.15 0.14 0.16 0.16 0.10 0.04 0.02 0.03 0.06 0.08 0.11 0.15 0.15 0.14 0.15 0.14 0.16 0.22 0.30 0.33 0.34 0.36 0.40 0.48 0.64 0.78 0.81 0.75 0.64 0.52 0.42 0.35 0.31
0.19 0.21 0.22 0.22 0.21 0.20 0.18 0.16 0.16 0.15 0.08 0.03 0.04 0.07 0.11 0.12 0.16 0.16 0.14 0.15 0.14 0.15 0.17 0.20 0.27 0.34 0.39 0.41 0.40 0.43 0.56 0.66 0.71 0.75 0.75 0.68 0.57 0.49
0.23 0.24 0.24 0.24 0.27 0.26 0.24 0.22 0.19 0.17 0.13 0.05 0.03 0.06 0.13 0.18 0.16 0.15 0.15 0.13 0.12 0.14 0.14 0.14 0.18 0.24 0.32 0.38 0.40 0.41 0.48 0.54 0.60 0.71 0.89 0.92 0.85 0.72
0.32 0.31 0.31 0.31 0.31 0.31 0.32 0.31 0.27 0.22 0.19 0.12 0.05 0.06 0.10 0.17 0.20 0.18 0.15 0.12 0.09 0.12 0.12 0.14 0.15 0.18 0.24 0.31 0.36 0.38 0.43 0.49 0.54 0.60 0.72 0.81 0.88 0.92
0.37 0.40 0.40 0.39 0.38 0.37 0.38 0.39 0.36 0.28 0.23 0.18 0.12 0.08 0.11 0.16 0.21 0.20 0.18 0.15 0.12 0.13 0.13 0.15 0.18 0.20 0.21 0.24 0.29 0.33 0.35 0.37 0.42 0.55 0.68 0.69 0.67 0.71
0.41 0.44 0.46 0.48 0.48 0.47 0.46 0.45 0.42 0.37 0.30 0.24 0.19 0.16 0.15 0.19 0.25 0.23 0.20 0.18 0.17 0.15 0.13 0.12 0.16 0.20 0.21 0.21 0.21 0.24 0.32 0.45 0.50 0.52 0.60 0.59 0.53 0.48
0.42 0.45 0.48 0.54 0.60 0.63 0.59 0.51 0.43 0.42 0.39 0.34 0.28 0.23 0.21 0.26 0.33 0.31 0.27 0.21 0.21 0.19 0.15 0.10 0.10 0.11 0.16 0.23 0.28 0.29 0.30 0.34 0.42 0.49 0.54 0.59 0.55 0.48
0.35 0.36 0.38 0.44 0.51 0.58 0.62 0.53 0.46 0.47 0.47 0.44 0.40 0.37 0.33 0.33 0.41 0.45 0.42 0.34 0.28 0.22 0.18 0.16 0.12 0.12 0.13 0.16 0.27 0.31 0.34 0.36 0.37 0.42 0.49 0.54 0.57 0.56
0.22 0.23 0.25 0.29 0.33 0.35 0.40 0.39 0.40 0.43 0.48 0.53 0.56 0.54 0.47 0.43 0.47 0.53 0.56 0.49 0.34 0.27 0.23 0.28 0.25 0.20 0.17 0.22 0.30 0.30 0.32 0.36 0.39 0.41 0.41 0.46 0.54 0.60
0.18 0.21 0.22 0.24 0.25 0.26 0.26 0.28 0.30 0.33 0.41 0.48 0.60 0.64 0.59 0.55 0.57 0.65 0.71 0.69 0.61 0.46 0.33 0.36 0.41 0.37 0.31 0.30 0.32 0.29 0.28 0.29 0.32 0.37 0.42 0.43 0.44 0.51
0.17 0.23 0.26 0.23 0.21 0.15 0.19 0.24 0.24 0.27 0.31 0.37 0.44 0.52 0.55 0.60 0.66 0.72 0.78 0.82 0.88 0.86 0.64 0.48 0.49 0.48 0.48 0.47 0.44 0.36 0.30 0.26 0.25 0.29 0.35 0.41 0.46 0.48
0.11 0.18 0.31 0.28 0.17 0.10 0.13 0.18 0.19 0.21 0.19 0.18 0.20 0.26 0.35 0.46 0.61 0.76 0.86 0.88 0.93 1.00 0.90 0.69 0.59 0.52 0.58 0.56 0.44 0.36 0.31 0.30 0.26 0.23 0.25 0.30 0.38 0.47
0.12 0.19 0.29 0.25 0.12 0.08 0.07 0.11 0.15 0.11 0.09 0.11 0.12 0.15 0.22 0.33 0.49 0.69 0.83 0.87 0.87 0.92 0.88 0.72 0.65 0.53 0.48 0.52 0.43 0.35 0.28 0.24 0.22 0.21 0.19 0.21 0.27 0.37
0.16 0.16 0.22 0.17 0.08 0.05 0.03 0.04 0.03 0.02 0.03 0.04 0.05 0.09 0.15 0.27 0.39 0.54 0.71 0.80 0.83 0.83 0.76 0.63 0.53 0.41 0.35 0.34 0.37 0.36 0.30 0.24 0.19 0.16 0.14 0.15 0.16 0.24
0.21 0.25 0.16 0.06 0.02 0.02 0.01 0.00 0.00 0.00 0.01 0.02 0.03 0.06 0.11 0.19 0.26 0.35 0.48 0.62 0.68 0.70 0.66 0.60 0.53 0.41 0.31 0.27 0.24 0.24 0.27 0.27 0.22 0.18 0.16 0.13 0.10 0.12
0.09 0.17 0.13 0.04 0.01 0.00 0.00 0.00 0.00 0.00 0.00 0.01 0.02 0.03 0.05 0.08 0.15 0.23 0.32 0.45 0.54 0.63 0.65 0.62 0.61 0.55 0.44 0.32 0.23 0.21 0.20 0.23 0.22 0.18 0.16 0.13 0.11 0.10
0.06 0.06 0.06 0.04 0.01 0.00 0.00 0.00 0.00 0.00 0.00 0.00 0.01 0.02 0.03 0.05 0.10 0.16 0.23 0.31 0.41 0.50 0.57 0.63 0.63 0.61 0.58 0.49 0.40 0.31 0.23 0.20 0.19 0.16 0.14 0.12 0.09 0.07
0.03 0.02 0.04 0.04 0.02 0.01 0.00 0.00 0.00 0.00 0.00 0.00 0.00 0.01 0.02 0.03 0.06 0.10 0.15 0.22 0.30 0.35 0.39 0.46 0.51 0.50 0.53 0.58 0.49 0.35 0.25 0.20 0.17 0.15 0.12 0.11 0.09 0.06
0.01 0.00 0.01 0.01 0.02 0.01 0.00 0.00 0.00 0.00 0.00 0.00 0.00 0.00 0.01 0.02 0.04 0.06 0.10 0.15 0.20 0.25 0.28 0.30 0.34 0.35 0.34 0.38 0.43 0.33 0.24 0.19 0.15 0.13 0.12 0.11 0.08 0.06
0.00 0.00 0.00 0.00 0.00 0.00 0.00 0.00 0.00 0.00 0.00 0.00 0.00 0.00 0.01 0.01 0.02 0.03 0.06 0.09 0.13 0.17 0.19 0.21 0.24 0.27 0.25 0.20 0.19 0.21 0.19 0.15 0.13 0.12 0.13 0.14 0.12 0.10
0.00 0.00 0.00 0.00 0.00 0.00 0.00 0.00 0.00 0.00 0.00 0.00 0.00 0.00 0.00 0.01 0.01 0.02 0.03 0.05 0.08 0.11 0.13 0.14 0.17 0.18 0.18 0.17 0.17 0.14 0.11 0.12 0.12 0.12 0.12 0.16 0.20 0.19
0.00 0.00 0.00 0.00 0.00 0.00 0.00 0.00 0.00 0.00 0.00 0.00 0.00 0.00 0.00 0.01 0.01 0.01 0.02 0.03 0.05 0.06 0.08 0.08 0.08 0.10 0.14 0.19 0.20 0.14 0.10 0.11 0.13 0.15 0.16 0.16 0.20 0.23
0.00 0.00 0.00 0.00 0.00 0.00 0.00 0.00 0.00 0.00 0.00 0.00 0.00 0.00 0.00 0.01 0.01 0.01 0.02 0.02 0.03 0.04 0.05 0.05 0.05 0.07 0.11 0.15 0.17 0.16 0.13 0.12 0.11 0.12 0.15 0.15 0.15 0.16